Monarch Pass, CO

7:57 PM MDT on April 28, 2017 (GMT -0600)
Monarch Pass

Weather History for KMYP - January, 2013

Change the Weather History Date:

Saturday, January 5, 2013

  Actual Average (KALS) Record (KALS)
Temperature  
Mean Temperature 13 °F -  
Max Temperature 21 °F 30 °F 57 °F (1956)
Min Temperature 5 °F -6 °F -33 °F (1971)
Degree Days  
Heating Degree Days 52    
Moisture  
Dew Point -5 °F    
Average Humidity 41    
Maximum Humidity 66    
Minimum Humidity 30    
Precipitation  
Precipitation 0.00 in - - ()
Sea Level Pressure  
Sea Level Pressure 30.32 in    
Wind  
Wind Speed 27 mph (WSW)    
Max Wind Speed 34 mph    
Max Gust Speed 40 mph    
Averages and records for this station are not official NWS values.
T = Trace of Precipitation, MM = Missing Value Source: NWS Daily Summary

Daily Weather History Graph

Daily Weather History Graph

Search for Another Location

Airport or City:

Trip Planner

Search our weather history database for the weather conditions in past years. The results will help you decide how hot, cold, wet, or windy it might be!

Date:

Astronomy

Jan. 05, 2013 Rise Set
Actual Time 7:21 AM MST 4:58 PM MST
Civil Twilight 6:52 AM MST 5:28 PM MST
Nautical Twilight 6:19 AM MST 6:01 PM MST
Astronomical Twilight 5:47 AM MST 6:33 PM MST
Moon 12:34 AM MST (1/5) 11:47 AM MST (1/5)
Length of Visible Light 10h 35m
Length of Day
9h 37m
Last Quarter, 43% of the Moon is Illuminated
Jan 5
Last Quarter
Jan 11
New
Jan 18
First Quarter
Jan 26
Full
Feb 3
Last Quarter

Hourly Weather History & Observations

Time (MST) Temp. Windchill Dew Point Humidity Pressure Visibility Wind Dir Wind Speed Gust Speed Precip Events Conditions
12:17 AM 15.8 °F - -7.6 °F 35% 30.18 in - North - - N/A   Clear
12:37 AM 17.6 °F - -9.4 °F 30% 30.18 in - North - - N/A   Clear
12:57 AM 12.2 °F - -5.8 °F 45% 30.18 in - North - - N/A   Clear
1:17 AM 14.0 °F - -5.8 °F 41% 30.19 in - North - - N/A   Clear
1:37 AM 12.2 °F - -7.6 °F 41% 30.20 in - North - - N/A   Clear
1:56 AM 12.2 °F - -7.6 °F 41% 30.20 in - North - - N/A   Clear
2:17 AM 14.0 °F - -9.4 °F 35% 30.20 in - North - - N/A   Clear
2:37 AM 10.4 °F - -4.0 °F 52% 30.20 in - North - - N/A   Clear
2:57 AM 12.2 °F - -5.8 °F 45% 30.21 in - North - - N/A   Clear
3:17 AM 14.0 °F - -9.4 °F 35% 30.21 in - North - - N/A   Clear
3:37 AM 14.0 °F - -9.4 °F 35% 30.21 in - North - - N/A   Clear
3:57 AM 10.4 °F - -7.6 °F 44% 30.21 in - North - - N/A   Clear
4:17 AM 12.2 °F - -7.6 °F 41% 30.22 in - North - - N/A   Clear
4:37 AM 12.2 °F - -7.6 °F 41% 30.22 in - North - - N/A   Clear
4:57 AM 10.4 °F - -5.8 °F 48% 30.22 in - North - - N/A   Clear
5:17 AM 8.6 °F - -5.8 °F 52% 30.22 in - North - - N/A   Clear
5:37 AM 5.0 °F - -4.0 °F 66% 30.22 in - North - - N/A   Clear
6:17 AM 8.6 °F - -4.0 °F 57% 30.24 in - North - - N/A   Clear
6:37 AM 6.8 °F - -4.0 °F 61% 30.24 in - North - - N/A   Clear
6:57 AM 8.6 °F - -4.0 °F 57% 30.25 in - North - - N/A   Clear
7:17 AM 8.6 °F - -5.8 °F 52% 30.26 in - North - - N/A   Clear
7:37 AM 6.8 °F - -5.8 °F 56% 30.27 in - North - - N/A   Clear
7:57 AM 6.8 °F - -5.8 °F 56% 30.27 in - North - - N/A   Clear
8:17 AM 8.6 °F - -5.8 °F 52% 30.29 in - North - - N/A   Clear
8:57 AM 10.4 °F - -7.6 °F 44% 30.30 in - North - - N/A   Clear
9:16 AM 10.4 °F - -5.8 °F 48% 30.30 in - North - - N/A   Clear
9:56 AM 14.0 °F - -5.8 °F 41% 30.32 in - North - - N/A   Clear
10:17 AM 14.0 °F - -5.8 °F 41% 30.34 in - North - - N/A   Clear
10:56 AM 15.8 °F -4.1 °F -4.0 °F 41% 30.33 in - WSW 28.8 mph 38.0 mph N/A   Clear
11:16 AM 14.0 °F -6.8 °F -4.0 °F 45% 30.32 in - WSW 29.9 mph - N/A   Clear
11:37 AM 15.8 °F -4.7 °F -2.2 °F 45% 30.32 in - WSW 31.1 mph 38.0 mph N/A   Clear
11:56 AM 15.8 °F -5.2 °F -4.0 °F 41% 30.30 in - WSW 33.4 mph 38.0 mph N/A   Clear
12:16 PM 17.6 °F -2.5 °F -4.0 °F 38% 30.31 in - WSW 32.2 mph 39.1 mph N/A   Clear
12:36 PM 17.6 °F -3.1 °F -2.2 °F 42% 30.30 in - WSW 34.5 mph 40.3 mph N/A   Clear
12:56 PM 17.6 °F -2.2 °F -2.2 °F 42% 30.31 in - West 31.1 mph 35.7 mph N/A   Clear
1:17 PM 19.4 °F 1.1 °F -2.2 °F 39% 30.32 in - West 27.6 mph 39.1 mph N/A   Clear
1:36 PM 19.4 °F 0.2 °F -0.4 °F 42% 30.31 in - WSW 31.1 mph 34.5 mph N/A   Clear
1:56 PM 19.4 °F 0.8 °F -2.2 °F 39% 30.32 in - West 28.8 mph - N/A   Clear
2:16 PM 19.4 °F 1.8 °F -0.4 °F 42% 30.33 in - WSW 25.3 mph - N/A   Clear
2:36 PM 19.4 °F 2.1 °F -0.4 °F 42% 30.34 in - WSW 24.2 mph - N/A   Clear
2:56 PM 19.4 °F 1.4 °F -0.4 °F 42% 30.35 in - WSW 26.5 mph - N/A   Clear
3:16 PM 19.4 °F 1.8 °F -0.4 °F 42% 30.35 in - SW 25.3 mph - N/A   Clear
4:16 PM 19.4 °F - -2.2 °F 39% 30.35 in - North - - N/A   Clear
4:37 PM 17.6 °F - -2.2 °F 42% 30.36 in - North - - N/A   Clear
4:57 PM 17.6 °F -1.3 °F -2.2 °F 42% 30.37 in - WSW 27.6 mph - N/A   Clear
5:17 PM 15.8 °F - -4.0 °F 41% 30.37 in - North - - N/A   Clear
5:37 PM 14.0 °F - -4.0 °F 45% 30.38 in - North - - N/A   Clear
5:57 PM 14.0 °F - -5.8 °F 41% 30.39 in - North - - N/A   Clear
6:17 PM 14.0 °F - -5.8 °F 41% 30.40 in - North - - N/A   Clear
6:37 PM 15.8 °F - -5.8 °F 38% 30.40 in - North - - N/A   Clear
6:57 PM 17.6 °F - -5.8 °F 35% 30.41 in - North - - N/A   Clear
7:17 PM 19.4 °F - -5.8 °F 33% 30.42 in - North - - N/A   Clear
7:37 PM 21.2 °F 9.5 °F -5.8 °F 30% 30.42 in - NW 11.5 mph - N/A   Clear
7:57 PM 21.2 °F - -5.8 °F 30% 30.42 in - North - - N/A   Clear
8:17 PM 19.4 °F - -5.8 °F 33% 30.42 in - North - - N/A   Clear
8:37 PM 21.2 °F 13.6 °F -5.8 °F 30% 30.43 in - WNW 5.8 mph - N/A   Clear
8:57 PM 19.4 °F - -7.6 °F 30% 30.43 in - North - - N/A   Clear
9:17 PM 17.6 °F - -5.8 °F 35% 30.43 in - North - - N/A   Clear
9:37 PM 19.4 °F - -5.8 °F 33% 30.43 in - North - - N/A   Clear
9:57 PM 19.4 °F 7.2 °F -7.6 °F 30% 30.44 in - WSW 11.5 mph - N/A   Clear
10:17 PM 19.4 °F - -5.8 °F 33% 30.44 in - North - - N/A   Clear
10:37 PM 17.6 °F 6.4 °F -7.6 °F 32% 30.44 in - SW 9.2 mph - N/A   Clear
10:57 PM 17.6 °F 6.4 °F -7.6 °F 32% 30.44 in - WSW 9.2 mph - N/A   Clear
11:17 PM 17.6 °F 4.3 °F -7.6 °F 32% 30.44 in - WSW 12.7 mph - N/A   Clear
11:37 PM 17.6 °F - -7.6 °F 32% 30.44 in - North - - N/A   Clear
11:57 PM 17.6 °F - -7.6 °F 32% 30.44 in - North - - N/A   Clear